User: anonymous   Login
Location: Caltech
(34.1382°N, 118.1253°W)
Time: 07:57:59
(UTC-08:00)
Language:

ADEOS II - Orbit

View from above orbital plane
View from above orbital plane
View from above satellite
View from above satellite

Ground track
Ground track

The orbit data is extracted from the following two-line orbital elements,

1 27597U 02056A   14330.06571343  .00000385  00000-0  17510-3 0  4609
2 27597 098.2780 329.2889 0001438 143.2587 257.8191 14.26927439622171
Epoch (UTC): 26 November 2014 01:34:37
Eccentricity: 0.0001438
inclination: 98.2780°
perigee height: 801 km
apogee height: 803 km
right ascension of ascending node: 329.2889°
argument of perigee: 143.2587°
revolutions per day: 14.26927439
mean anomaly at epoch: 257.8191°
orbit number at epoch: 62217

The dashed part of the orbit path shows where the satellite is in the earth's shadow,  

DLR